[[{"header":{"parameterUnit":"m.s-1","parameterCategory":1,"la1":30.2991,"la2":30.254,"lo1":-89.0895,"lo2":-89.0444,"dy":0.0017,"dx":0.0017,"nx":28,"ny":28,"refTime":"2024-06-09T03:00:00:Z","depth":0,"parameterNumber":2,"parameterNumberName":"U-component_of_WINDS"},"data":[0,0,0,0,0,0,0,0,0,0,0,0,0,0,0,0,0,0,0,0,0,0,0,0,0,0,0,0,0,0,0,0,0,0,0,0,0,0,0,0,0,0,0,0,0,0,0,0,0,0,0,0,0,0,0,0,0,0,2.3883,2.3885,0,2.4013,2.4014,2.4016,2.3987,2.3985,2.3982,2.398,2.4115,2.4121,2.4126,0,0,0,0,0,0,0,0,0,0,0,0,0,2.3613,2.3618,2.3883,2.3885,2.3886,2.4012,2.4014,2.4016,2.3987,2.3984,2.3981,2.3979,2.4113,2.412,2.4127,0,0,0,0,0,0,0,0,0,0,0,0,0,2.3735,2.362,2.3883,2.3887,2.3889,2.4012,2.4014,2.4016,2.3988,2.3984,2.3981,2.3977,2.4111,2.4119,2.4128,2.4255,0,0,2.4155,2.4159,0,0,0,0,0,0,0,0,2.3728,2.3745,2.3885,2.3887,2.3889,2.398,2.3968,2.4097,2.3989,2.3951,2.398,2.3975,2.4073,2.4085,2.4117,2.4262,2.4268,2.4156,2.4161,2.4165,2.4167,0,0,0,0,0,0,0,2.372,2.3739,2.3934,2.3887,2.389,2.3883,2.3897,2.3993,2.4031,2.3954,2.3952,2.3967,2.4074,2.4109,2.412,2.427,2.4155,2.4163,2.4169,2.4172,2.4524,2.4528,0,0,0,0,0,0,2.3709,2.3733,2.393,2.3938,2.3798,2.3891,2.3906,2.3955,2.403,2.4038,2.397,2.3966,2.4095,2.411,2.4125,2.4278,2.4165,2.4173,2.4178,2.452,2.4525,2.453,0,0,0,0,0,0,2.3704,2.3727,2.3925,2.3835,2.386,2.39,2.3954,2.3959,2.3994,2.4042,2.4049,2.3999,2.4093,2.4112,2.4223,2.4282,2.4177,2.4185,2.4516,2.4522,2.4527,2.4587,0,0,0,0,0,0,2.3696,2.3725,2.3774,2.3836,2.3865,2.4021,2.3958,2.3964,2.4009,2.4004,2.4071,2.4079,2.4092,2.421,2.4232,2.4293,2.4192,2.451,2.4518,2.4526,2.4579,2.4594,2.4606,0,0,0,0,0,2.3686,2.3786,2.3776,2.38,2.3926,2.4024,2.404,2.4053,2.4014,2.4063,2.4094,2.4077,2.4273,2.4221,2.4246,2.431,2.4507,2.4516,2.4525,2.4573,2.4591,2.4606,0,0,0,0,0,0,2.3731,2.3794,2.3784,2.3907,2.396,2.4019,2.4082,2.4071,2.4137,2.413,2.4143,2.4158,2.427,2.4302,2.4243,2.4437,2.4384,2.4399,2.4413,2.443,2.4443,2.4433,2.4199,0,0,0,0,0,2.3755,2.3828,2.388,2.3984,2.4011,2.4042,2.4085,2.409,2.4145,2.4168,2.4207,2.4263,2.4336,2.4385,2.4456,2.4584,2.4598,2.464,2.4654,2.4665,2.4677,2.4746,2.4765,2.456,2.456,2.456,0,0,2.3805,2.3849,2.3895,2.3994,2.4035,2.4112,2.4061,2.4144,2.4201,2.4181,2.4287,2.4318,2.4381,2.45,2.4555,2.4529,2.4737,2.4676,2.4685,2.4691,2.4757,2.4777,2.4794,2.4566,2.4565,2.4564,0,0,2.3936,2.3977,2.4067,2.4109,2.4172,2.4192,2.4214,2.4274,2.4294,2.44,2.4386,2.4455,2.4582,2.4627,2.4666,2.4813,2.4799,2.4836,2.4906,2.4973,2.4989,2.5004,2.5055,2.5074,2.4848,2.4848,2.4849,0,2.3991,2.4104,2.4114,2.4199,2.4242,2.4227,2.4318,2.4359,2.4443,2.4474,2.4444,2.4603,2.4644,2.4773,2.4809,2.4842,2.4867,2.4828,2.4986,2.5001,2.5014,2.5064,2.5083,2.4852,2.4852,2.4852,2.4851,0,2.4168,2.4247,2.4313,2.4392,2.4444,2.4531,2.4555,2.4605,2.4605,2.4628,2.4737,2.4786,2.4866,2.4897,2.4899,2.5026,2.5009,2.4983,2.4929,2.5038,2.5084,2.5103,2.4858,2.4857,2.4855,2.4854,0,0,2.4331,2.4414,2.4438,2.4473,2.4542,2.4604,2.469,2.4767,2.481,2.4869,2.4941,2.5049,2.5025,2.507,2.5076,2.5135,2.5247,2.5102,2.5104,2.5127,2.539,2.5408,2.543,2.5239,2.5242,2.5245,2.5384,0,2.4467,2.4618,2.463,2.4767,2.4839,2.4825,2.4901,2.4951,2.4975,2.5041,2.5067,2.5143,2.5106,2.5133,2.5191,2.5221,2.53,2.5212,2.5306,2.531,2.529,2.5455,2.5475,2.5603,2.5403,2.5406,2.5408,0,2.4646,2.4708,2.4852,2.4909,2.494,2.5007,2.5078,2.5141,2.5198,2.5211,2.5261,2.5259,2.5348,2.5292,2.5415,2.5354,2.5394,2.5415,2.542,2.5429,2.5365,2.5467,2.5645,2.5664,2.5437,2.5435,2.5433,0,2.4748,2.4868,2.4969,2.5001,2.507,2.5118,2.5149,2.5202,2.5247,2.531,2.5339,2.5412,2.5451,2.5508,2.5525,2.5483,2.5647,2.5593,2.566,2.566,2.5695,2.5692,2.5881,2.5722,2.5722,2.5722,2.5721,0,2.4899,2.4987,2.5016,2.5078,2.5177,2.5189,2.5287,2.5315,2.5363,2.543,2.5423,2.5487,2.5507,2.5574,2.5589,2.5688,2.5706,2.5719,2.5722,2.5719,2.5717,2.5745,2.5736,2.5727,2.5726,2.5725,2.5724,0,2.503,2.5053,2.5162,2.5218,2.5235,2.5305,2.5353,2.5413,2.5435,2.5521,2.5542,2.5578,2.5656,2.568,2.5775,2.5785,2.59,2.5895,2.5881,2.588,2.5946,2.5939,2.6158,2.6187,2.601,2.6012,2.6013,0,2.5123,2.5191,2.5254,2.5298,2.5331,2.5403,2.5449,2.5464,2.5512,2.5581,2.5633,2.571,2.5773,2.5899,2.5934,2.6007,2.6003,2.6074,2.6014,2.6008,2.6002,2.5998,2.6004,2.6086,2.6087,2.6089,2.609,0,2.5287,2.5295,2.5361,2.5431,2.5485,2.5541,2.5595,2.5632,2.5655,2.5709,2.5789,2.5837,2.5934,2.6011,2.6084,2.6117,2.6108,2.6109,2.6128,2.6126,2.6114,2.612,2.5911,2.6104,2.6103,2.6102,2.6101,2.61,2.5402,2.546,2.5514,2.5587,2.5629,2.5679,2.5738,2.5767,2.5833,2.5912,2.5917,2.6004,2.6058,2.6156,2.6192,2.626,2.6239,2.6267,2.6274,2.6281,2.6285,2.6104,2.6274,2.6273,2.6273,2.6273,2.6272,0,2.5564,2.5597,2.5665,2.5739,2.5797,2.5782,2.5841,2.589,2.5966,2.6017,2.6079,2.617,2.6244,2.6285,2.6359,2.6405,2.6403,2.6424,2.642,2.6428,2.6301,2.6276,2.6425,2.6425,2.6425,2.6425,2.6425,2.6425,2.5655,2.5753,2.5767,2.5886,2.5919,2.6002,2.6037,2.6083,2.6124,2.6226,2.6287,2.6313,2.6359,2.6437,2.6504,2.6514,2.6541,2.6565,2.6572,2.6452,2.6437,2.6422,2.6399,2.6571,2.6571,2.6693,2.6694,2.6695]},{"header":{"parameterUnit":"m.s-1","parameterCategory":1,"la1":30.2991,"la2":30.254,"lo1":-89.0895,"lo2":-89.0444,"dy":0.0017,"dx":0.0017,"nx":28,"ny":28,"refTime":"2024-06-09T03:00:00:Z","depth":0,"parameterNumber":3,"parameterNumberName":"V-component_of_WINDS"},"data":[0,0,0,0,0,0,0,0,0,0,0,0,0,0,0,0,0,0,0,0,0,0,0,0,0,0,0,0,0,0,0,0,0,0,0,0,0,0,0,0,0,0,0,0,0,0,0,0,0,0,0,0,0,0,0,0,0,0,-0.7695,-0.7695,0,-0.7671,-0.7671,-0.7671,-0.7655,-0.7655,-0.7655,-0.7655,-0.7629,-0.7628,-0.7628,0,0,0,0,0,0,0,0,0,0,0,0,0,-0.7725,-0.7725,-0.7695,-0.7695,-0.7695,-0.7671,-0.7671,-0.7671,-0.7655,-0.7655,-0.7655,-0.7655,-0.7629,-0.7629,-0.7628,0,0,0,0,0,0,0,0,0,0,0,0,0,-0.7708,-0.7725,-0.7695,-0.7684,-0.7683,-0.7672,-0.7671,-0.7671,-0.7655,-0.7655,-0.7655,-0.7655,-0.7629,-0.7629,-0.7628,-0.7625,0,0,-0.7625,-0.7625,0,0,0,0,0,0,0,0,-0.7709,-0.7707,-0.7686,-0.7685,-0.7684,-0.7666,-0.7672,-0.7655,-0.7655,-0.7666,-0.7655,-0.7655,-0.7641,-0.764,-0.7635,-0.7624,-0.7623,-0.7625,-0.7624,-0.7624,-0.7624,0,0,0,0,0,0,0,-0.771,-0.7708,-0.7686,-0.7686,-0.7684,-0.768,-0.7677,-0.7669,-0.7655,-0.7665,-0.7664,-0.7661,-0.7641,-0.7636,-0.7635,-0.7622,-0.7625,-0.7624,-0.7623,-0.7623,-0.7606,-0.7606,0,0,0,0,0,0,-0.7713,-0.7709,-0.7687,-0.7685,-0.7696,-0.7679,-0.7676,-0.7672,-0.7655,-0.7652,-0.7661,-0.7661,-0.7638,-0.7636,-0.7634,-0.7629,-0.7624,-0.7623,-0.7623,-0.7606,-0.7606,-0.7606,0,0,0,0,0,0,-0.7714,-0.7711,-0.7687,-0.7697,-0.7693,-0.7679,-0.7674,-0.7672,-0.7667,-0.7652,-0.7649,-0.766,-0.7638,-0.7635,-0.7627,-0.7628,-0.7623,-0.7622,-0.7606,-0.7606,-0.7606,-0.7619,0,0,0,0,0,0,-0.7715,-0.7712,-0.7711,-0.7697,-0.7693,-0.7682,-0.7674,-0.7671,-0.7666,-0.7665,-0.765,-0.7647,-0.7637,-0.7629,-0.7626,-0.7626,-0.7621,-0.7606,-0.7606,-0.7606,-0.7619,-0.762,-0.7621,0,0,0,0,0,-0.7716,-0.7716,-0.7711,-0.7709,-0.7692,-0.7682,-0.768,-0.7669,-0.7666,-0.7665,-0.7655,-0.7647,-0.7628,-0.7628,-0.7625,-0.7625,-0.7606,-0.7606,-0.7606,-0.7618,-0.762,-0.7621,0,0,0,0,0,0,-0.773,-0.7713,-0.7708,-0.7703,-0.7694,-0.768,-0.7678,-0.7671,-0.7662,-0.7661,-0.7648,-0.7645,-0.7638,-0.7631,-0.7631,-0.7621,-0.7616,-0.7616,-0.7626,-0.7627,-0.7628,-0.763,-0.762,0,0,0,0,0,-0.7733,-0.7727,-0.7712,-0.7709,-0.7705,-0.7692,-0.7688,-0.768,-0.767,-0.7666,-0.7656,-0.7646,-0.7637,-0.7632,-0.7623,-0.7618,-0.7614,-0.7616,-0.7617,-0.7618,-0.7618,-0.7613,-0.7614,-0.7607,-0.7607,-0.7607,0,0,-0.7738,-0.7728,-0.7725,-0.7712,-0.7704,-0.7697,-0.7689,-0.7683,-0.7678,-0.7665,-0.7657,-0.7649,-0.7637,-0.763,-0.7626,-0.7623,-0.7619,-0.7618,-0.7619,-0.7618,-0.7614,-0.7614,-0.7615,-0.7607,-0.7607,-0.7607,0,0,-0.7743,-0.7736,-0.7732,-0.7724,-0.7713,-0.7704,-0.7703,-0.7689,-0.7684,-0.7676,-0.7666,-0.7659,-0.7645,-0.7636,-0.763,-0.7633,-0.7625,-0.763,-0.7635,-0.7631,-0.7632,-0.7632,-0.7632,-0.7633,-0.763,-0.763,-0.763,0,-0.7751,-0.7741,-0.7731,-0.7725,-0.7719,-0.7708,-0.7703,-0.7696,-0.7682,-0.7678,-0.7675,-0.7657,-0.7648,-0.7639,-0.7639,-0.7635,-0.7633,-0.7632,-0.7633,-0.7633,-0.7633,-0.7633,-0.7633,-0.7631,-0.763,-0.763,-0.763,0,-0.7751,-0.7745,-0.7743,-0.773,-0.7724,-0.7719,-0.7707,-0.7702,-0.7695,-0.7686,-0.7678,-0.7667,-0.7655,-0.7653,-0.7646,-0.7642,-0.7641,-0.7635,-0.763,-0.7635,-0.7634,-0.7634,-0.7631,-0.7631,-0.7631,-0.7631,0,0,-0.7765,-0.7746,-0.7746,-0.7739,-0.7725,-0.772,-0.7714,-0.7703,-0.7699,-0.769,-0.7684,-0.7672,-0.7667,-0.766,-0.7652,-0.7648,-0.765,-0.7643,-0.7643,-0.7645,-0.7644,-0.7648,-0.7648,-0.7645,-0.7645,-0.7645,-0.7645,0,-0.7768,-0.7758,-0.7748,-0.774,-0.7734,-0.7723,-0.7717,-0.7708,-0.77,-0.7692,-0.7683,-0.7675,-0.7669,-0.7665,-0.7661,-0.7651,-0.765,-0.765,-0.7639,-0.7638,-0.7642,-0.7648,-0.7652,-0.7653,-0.7645,-0.7645,-0.7645,0,-0.777,-0.7762,-0.7754,-0.7741,-0.7737,-0.7733,-0.7722,-0.7716,-0.7704,-0.7699,-0.7691,-0.7682,-0.7674,-0.767,-0.7659,-0.766,-0.7654,-0.7648,-0.7648,-0.7646,-0.7642,-0.7646,-0.7653,-0.7653,-0.7645,-0.7645,-0.7645,0,-0.7781,-0.7767,-0.7761,-0.7756,-0.774,-0.7737,-0.773,-0.7719,-0.7713,-0.7703,-0.7699,-0.7688,-0.7682,-0.7674,-0.7662,-0.766,-0.7652,-0.7647,-0.7646,-0.7647,-0.7645,-0.7645,-0.7651,-0.7642,-0.7642,-0.7642,-0.7642,0,-0.7785,-0.7781,-0.7765,-0.7761,-0.7755,-0.7744,-0.7738,-0.773,-0.772,-0.7714,-0.7703,-0.7697,-0.7683,-0.7675,-0.7666,-0.7657,-0.7655,-0.7649,-0.7647,-0.765,-0.7651,-0.7646,-0.7645,-0.7642,-0.7642,-0.7642,-0.7642,0,-0.7795,-0.7785,-0.7777,-0.7763,-0.7759,-0.7755,-0.7743,-0.7738,-0.7729,-0.7721,-0.7718,-0.7704,-0.7694,-0.7682,-0.7668,-0.7662,-0.7654,-0.7651,-0.7658,-0.7657,-0.7657,-0.7657,-0.7659,-0.7659,-0.7651,-0.7651,-0.7651,0,-0.7799,-0.7795,-0.778,-0.7776,-0.7769,-0.7762,-0.7756,-0.7744,-0.7738,-0.7725,-0.7721,-0.7711,-0.7701,-0.7686,-0.7674,-0.7663,-0.7659,-0.766,-0.7657,-0.766,-0.7658,-0.7658,-0.7658,-0.7661,-0.7661,-0.7662,-0.7662,0,-0.7805,-0.78,-0.7792,-0.7783,-0.7776,-0.7768,-0.7759,-0.7755,-0.7741,-0.7735,-0.7725,-0.7718,-0.7704,-0.7693,-0.768,-0.7672,-0.7664,-0.7663,-0.7662,-0.7665,-0.7669,-0.7667,-0.766,-0.7663,-0.7663,-0.7663,-0.7663,-0.7662,-0.7812,-0.7808,-0.7797,-0.7788,-0.7781,-0.7772,-0.7767,-0.7758,-0.775,-0.7738,-0.7731,-0.7721,-0.7709,-0.7691,-0.7684,-0.7675,-0.7672,-0.7671,-0.7671,-0.767,-0.7671,-0.7671,-0.7673,-0.7673,-0.7673,-0.7672,-0.7672,0,-0.7818,-0.781,-0.7802,-0.779,-0.7783,-0.7777,-0.7767,-0.7761,-0.7753,-0.7743,-0.7734,-0.7722,-0.7712,-0.7699,-0.7688,-0.7683,-0.7679,-0.768,-0.768,-0.7678,-0.7675,-0.7676,-0.7684,-0.7684,-0.7684,-0.7684,-0.7684,-0.7684,-0.782,-0.7813,-0.7806,-0.7795,-0.7787,-0.7778,-0.7772,-0.7765,-0.7756,-0.7744,-0.7735,-0.7727,-0.7716,-0.7703,-0.7693,-0.769,-0.7685,-0.7688,-0.7683,-0.768,-0.7679,-0.7678,-0.7679,-0.7687,-0.7687,-0.7687,-0.7687,-0.7687]}]]